Regional Weather Roundup
Issued by NWS

Home | Current Version | Previous Version | Graphics & Text | Print | Product List | Glossary On
Versions: 1 2 3 4 5 6 7 8 9 10 11 12 13 14 15 16 17 18 19 20 21 22 23 24 25 26 27 28 29 30 31 32 33 34 35 36 37 38 39 40 41 42 43 44 45 46 47 48 49 50
494
ASUS43 KIND 231309
RWRIN

WEATHER ROUNDUP FOR INDIANA
NATIONAL WEATHER SERVICE INDIANAPOLIS IN
900 AM EDT FRI JUN 23 2017

NOTE: "FAIR" INDICATES FEW OR NO CLOUDS BELOW 12,000 FEET WITH NO
SIGNIFICANT WEATHER AND/OR OBSTRUCTIONS TO VISIBILITY.

* - STATION DOES NOT REPORT WEATHER SUCH AS PRECIPITATION OR FOG.

+ - STATION NOT QUALITY CONTROLLED BY THE NATIONAL WEATHER SERVICE.
    USE DATA WITH CAUTION...ESPECIALLY DEWPOINT AND RELATIVE
    HUMIDITY OBSERVATIONS.

INZ001>003-010>013-019-020-231400-
NORTHWEST INDIANA

CITY           SKY/WX    TMP DP  RH WIND       PRES   REMARKS
GARY /AIRPORT/ LGT RAIN  68  66  94 CALM      29.68R
KNOX *+        PTSUNNY   64  64 100 CALM      29.68F
LA PORTE +     DRIZZLE   66  65  96 CALM      29.66F
MICHIGAN CITY+   N/A    N/A N/A N/A S3        29.67S
MONTICELLO +   RAIN      72  69  92 W9G18     29.70R
RENSSELAER +   CLOUDY    70  64  83 NW7       29.71R
VALPARAISO     RAIN      68  66  93 SW9       29.69R FOG

$$

LMZ046-743>745-231400-
SOUTHERN LAKE MICHIGAN

STATION/POSITION TIME  TEMP    WIND        PRES    WAVE
                       AIR SEA DIR/SP/G            HT
                 (UTC) (F)     (DEG/KT/KT) (MB)    (FT)
BURNS HARBOR     1240   66     220/  6/  7 1005.4F
MICHIGAN CITY    1240   65     260/  5/  6   N/A
5NW MICH CITY    1250   66 67  280/  2/  6   N/A     1

$$

INZ004-005-014>016-021>024-231400-
NORTH CENTRAL INDIANA

CITY           SKY/WX    TMP DP  RH WIND       PRES   REMARKS
ELKHART        LGT RAIN  68  64  88 W5        29.68R
GOSHEN         CLOUDY    70  63  78 NW8       29.69R
LOGANSPORT +   CLOUDY    73  73 100 W10       29.69S
PERU/GRISSOM   RAIN      75  75 100 W10       29.68R
ROCHESTER +    LGT RAIN  68  68 100 NW14      29.73R
SOUTH BEND     RAIN      66  66 100 S3        29.66F
WARSAW +       DRIZZLE   66  64  94 W13G18    29.71R

$$

INZ006>009-017-018-025>027-231400-
NORTHEAST INDIANA

CITY           SKY/WX    TMP DP  RH WIND       PRES   REMARKS
AUBURN +       HVY RAIN N/A N/A N/A SW7       29.68S
FORT WAYNE     TSTM      72  69  90 W12       29.68S
HUNTINGTON +   LGT RAIN  70  69  96 W12G17    29.68F
KENDALLVILLE + LGT RAIN  71  70  99 S9G23     29.66F

$$

INZ028-029-035-036-043>045-051>053-231400-
WEST CENTRAL INDIANA

CITY           SKY/WX    TMP DP  RH WIND       PRES   REMARKS
CRAWFORDSVL +  CLOUDY    73  73 100 SW9       29.71S
GREENCASTLE +  CLOUDY    73  72  94 CALM      29.72F FOG
LAFAYETTE      PTSUNNY   77  75  93 W9        29.68S
TERRE HAUTE    CLOUDY    77  73  87 SW9       29.72R

$$

INZ030>032-037>040-046>048-054>057-064-065-231400-
CENTRAL INDIANA

CITY           SKY/WX    TMP DP  RH WIND       PRES   REMARKS
ANDERSON       CLOUDY    79  72  78 SW8       29.72
CP ATTERBURY + RAIN      73  72  94 SW8       29.74S
COLUMBUS       LGT RAIN  73  72  94 SW9       29.74S FOG
FRANKFORT +    CLOUDY    77  75  92 W10       29.71F
INDIANAPOLIS   LGT RAIN  76  73  91 SW14      29.71S
-EAGLE CREEK   LGT RAIN  75  73  93 SW10G17   29.71S FOG
KOKOMO +       LGT RAIN  75  73  93 W10       29.70S
MARION +       CLOUDY    75  72  88 W14       29.70S FOG
MT COMFORT *+  CLOUDY    75  72  88 SW12      29.72F
SHELBYVILLE    RAIN      76  71  85 SW12      29.72S
ZIONSVILLE +   TSTM      73  72  96 SW7       29.71F

$$

INZ033-034-041-042-049-050-058-059-231400-
EAST CENTRAL INDIANA

CITY           SKY/WX    TMP DP  RH WIND       PRES   REMARKS
MUNCIE         CLOUDY    76  72  87 SW10      29.70F
RICHMOND +     LGT RAIN  72  72 100 SW12G21   29.75F

$$

INZ060-061-067>069-081>083-085>088-231400-
SOUTHWEST INDIANA

CITY           SKY/WX    TMP DP  RH WIND       PRES   REMARKS
EVANSVILLE     HVY RAIN  74  72  93 S6        29.76S FOG
HUNTINGBURG *+ LGT RAIN  75  73  93 S10       29.78R
WASHINGTON +   RAIN      74  73  94 S7        29.75R

$$

INZ062-063-066-070>080-084-089>092-231400-
SOUTH CENTRAL AND SOUTHEAST INDIANA

CITY           SKY/WX    TMP DP  RH WIND       PRES   REMARKS
BEDFORD +      CLOUDY    73  70  88 S9G16     29.76R
BLOOMINGTON    CLOUDY    75  71  87 SW13G18   29.75R
MADISON *+     CLOUDY    75  72  88 S15       29.80S
NORTH VERNON + CLOUDY    73  72  94 S9        29.76S
SEYMOUR +      HVY RAIN  75  73  94 SW12G21   29.75S

$$





USA.gov is the U.S. government's official web portal to all federal, state and local government web resources and services.